Location: Chittendens Corners
(41.2320°N, 81.4940°W)
Time: 17:35:02
(UTC+00:00)

Cosmos 2227 Rocket - Pass Details

Date: 29 October 2020
Orbit: 839 x 845 km, 71.0° (Epoch: 23 November)

Event Time Altitude Azimuth Distance (km) Brightness Sun altitude
Rises 23:40:47 0° 335° (NNW) 3,406 5.6 -14.9°
Reaches altitude 10° 23:43:14 10° 334° (NNW) 2,468 4.9 -15.3°
Maximum altitude 23:48:54 80° 249° (WSW) 860 2.3 -16.4°
Drops below altitude 10° 23:54:32 10° 162° (SSE) 2,456 4.5 -17.5°
Sets 23:56:58 0° 162° (SSE) 3,388 5.2 -17.9°
